Regional Weather Roundup
Issued by NWS

Home | Current Version | Previous Version | Text Only | Print | Product List | Glossary On
Versions: 1 2 3 4 5 6 7 8 9 10 11 12 13 14 15 16 17 18 19 20 21 22 23 24 25 26 27
000
ASUS45 KCYS 162310
RWRWY

WYOMING REGIONAL WEATHER ROUNDUP
NATIONAL WEATHER SERVICE CHEYENNE WY
500 PM MDT WED AUG 16 2017

NOTE:  "FAIR" INDICATES FEW OR NO CLOUDS BELOW 12,000 FEET
WITH NO SIGNIFICANT WEATHER AND/OR OBSTRUCTIONS TO VISIBILITY.

WYZ001-170000-
YELLOWSTONE NATIONAL PARK

CITY           SKY/WX    TMP DP  RH WIND       PRES   REMARKS
LK YELLOWSTONE   N/A     66  39  37 VRB5      30.25F
W YELLOWSTONE  NOT AVBL

$$
WYZ002>013-054>058-071-098>099-170000-
NORTHERN WYOMING

CITY           SKY/WX    TMP DP  RH WIND       PRES   REMARKS
JACKSON        FAIR      76  31  19 SW10      30.15F
CODY           FAIR      73  40  30 W15G26    30.04S
GREYBULL       FAIR      86  27  11 SW5       29.94F
WORLAND        FAIR      85  28  12 NE5       29.97F
SHERIDAN       FAIR      84  35  17 SW5       29.96F
BUFFALO        FAIR      80  32  17 S12       30.04F
GILLETTE       FAIR      81  26  13 SE3       30.01S
HULETT         FAIR      79  41  25 CALM      30.03S
NEWCASTLE      FAIR      79  34  19 W8        30.03S

$$
WYZ014>020-022>026-101>103-170000-
CENTRAL WYOMING

CITY           SKY/WX    TMP DP  RH WIND       PRES   REMARKS
BIG PINEY      FAIR      68  43  40 SW8       30.21S
PINEDALE       FAIR      70  32  24 W6        30.21S
DUBOIS         MOCLDY    70  32  24 NW16      30.18S
LANDER           N/A    N/A N/A N/A MISG      30.05F
RIVERTON       FAIR      79  33  19 S9        30.06F
CASPER         FAIR      78  28  16 SW3       30.08S
DOUGLAS        FAIR      78  39  24 W8        30.07F

$$
WYZ021-027>030-104>119-170000-
SOUTHERN WYOMING

CITY           SKY/WX    TMP DP  RH WIND       PRES   REMARKS
EVANSTON       CLOUDY    71  35  26 MISG      30.22S
KEMMERER         N/A     72  28  20 W16G23    30.22S
FORT BRIDGER   FAIR      74  33  22 NW14G23   30.24S
ROCK SPRINGS   FAIR      75  30  19 SW9G18    30.18F
RAWLINS        PTSUNNY   70  38  31 SW12      30.19S
SARATOGA       MOCLDY    70  36  28 W6        30.22S
LARAMIE        FAIR      70  30  22 NW18G25   30.20S
CHEYENNE       FAIR      72  37  28 NE9       30.15S
TORRINGTON     FAIR      78  38  23 N7        30.04S
PINE BLUFFS    FAIR      73  39  29 N8        30.11S

$$




USA.gov is the U.S. government's official web portal to all federal, state and local government web resources and services.